Bookmark and Share
Track history (hours):
 

Tms Max

Last reported at 2014-Apr-18 02:33 UTC. Time now 2014-Apr-18 03:03 UTC.
Position N 49°00' E 008°18'.

Length 105 m; draft 0.2 m.

Type: Ship. MMSI: 211516070.

NotesDate/timePositionNaut miles runAvg speedWind from/ knotsBaromVisibWave heightAir tempDewpointWater temp
2014-Apr-18 02:33N 49°00' E 008°18'4 3.8
2014-Apr-18 01:33N 49°04' E 008°19'4 3.8
2014-Apr-18 00:33N 49°07' E 008°22'3 3.5
2014-Apr-17 23:33N 49°11' E 008°23'4 3.9
2014-Apr-17 22:33N 49°15' E 008°24'4 4.0
2014-Apr-17 21:31N 49°17' E 008°29'3 3.3
2014-Apr-17 20:32N 49°20' E 008°28'110 3.4
2014-Apr-16 12:29N 50°55' E 006°59'18 3.4
2014-Apr-16 07:23N 51°11' E 006°48'3 3.7
2014-Apr-16 06:33N 51°13' E 006°44'2 2.4
2014-Apr-16 05:33N 51°15' E 006°46'58 3.4
2014-Apr-15 12:34N 51°54' E 005°37'6 5.8
2014-Apr-15 11:34N 51°54' E 005°27'6 6.4
2014-Apr-15 10:34N 51°58' E 005°19'9 8.6
2014-Apr-15 09:34N 52°02' E 005°07'8 8.4
2014-Apr-15 08:34N 52°10' E 004°60'9 8.7
2014-Apr-15 07:34N 52°18' E 005°01'7 6.6
2014-Apr-15 06:34N 52°23' E 004°54'2 2.4
2014-Apr-15 05:33N 52°24' E 004°51'0 0.0
2014-Apr-15 03:34N 52°24' E 004°51'0 0.0
2014-Apr-15 02:34N 52°24' E 004°51'0 0.0
2014-Apr-15 01:34N 52°24' E 004°51'0 0.0
2014-Apr-15 00:34N 52°24' E 004°51'0 0.0
2014-Apr-14 23:34N 52°24' E 004°51'0 0.0
2014-Apr-14 22:34N 52°24' E 004°51'0 0.0
2014-Apr-14 21:34N 52°24' E 004°51'0 0.0
2014-Apr-14 20:34N 52°24' E 004°51'5 5.0
2014-Apr-14 19:34N 52°22' E 004°58'9 8.7
2014-Apr-14 18:34N 52°13' E 005°00'9 9.3
2014-Apr-14 17:34N 52°04' E 005°05'10 9.7
2014-Apr-14 16:34N 51°58' E 005°18'6 5.5
2014-Apr-14 15:33N 51°55' E 005°26'20 9.6
2014-Apr-14 13:31N 51°52' E 005°57'46 7.6
2014-Apr-14 07:29N 51°16' E 006°42'6 6.4
2014-Apr-14 06:34N 51°11' E 006°47'16 1.8
2014-Apr-13 21:31N 50°56' E 006°58'110 7.6
2014-Apr-13 07:05N 49°23' E 008°30'5 7.8
2014-Apr-13 06:28N 49°18' E 008°29'8 9.1
2014-Apr-13 05:33N 49°11' E 008°23'10 9.9
2014-Apr-13 04:33N 49°02' E 008°18'10 9.7
2014-Apr-13 03:34N 48°54' E 008°09'6 5.3
2014-Apr-13 02:28N 48°49' E 008°06'7 7.7
2014-Apr-13 01:33N 48°44' E 007°58'66 5.9
2014-Apr-12 14:22N 47°40' E 007°31'4 5.1
2014-Apr-12 13:33N 47°37' E 007°35'4 4.0
2014-Apr-12 12:33N 47°34' E 007°38'1 1.3
2014-Apr-12 11:33N 47°33' E 007°40'0 0.0
2014-Apr-12 10:33N 47°33' E 007°40'0 0.0
2014-Apr-12 09:33N 47°33' E 007°40'0 0.0
2014-Apr-12 08:33N 47°33' E 007°40'0 0.0
2014-Apr-12 07:32N 47°33' E 007°40'0 0.0
2014-Apr-12 06:33N 47°33' E 007°40'0 0.0
2014-Apr-12 05:33N 47°33' E 007°40'0 0.0
2014-Apr-12 04:33N 47°33' E 007°40'0 0.0
2014-Apr-12 03:33N 47°33' E 007°40'0 0.0
2014-Apr-12 02:32N 47°33' E 007°40'0 0.0
2014-Apr-12 01:33N 47°33' E 007°40'0 0.0
2014-Apr-12 00:33N 47°33' E 007°40'0 0.0
2014-Apr-11 23:33N 47°33' E 007°40'0 0.0
2014-Apr-11 22:33N 47°33' E 007°40'0 0.0
2014-Apr-11 21:33N 47°33' E 007°40'0 0.0
2014-Apr-11 20:33N 47°33' E 007°40'0 0.0
2014-Apr-11 19:33N 47°33' E 007°40'0 0.0
2014-Apr-11 18:33N 47°33' E 007°40'0 0.0
2014-Apr-11 17:33N 47°33' E 007°40'0 0.0
2014-Apr-11 16:33N 47°33' E 007°40'0 0.0
2014-Apr-11 15:33N 47°33' E 007°40'0 0.0
2014-Apr-11 14:33N 47°33' E 007°40'0 0.0
2014-Apr-11 13:33N 47°33' E 007°40'0 0.0
2014-Apr-11 12:33N 47°33' E 007°40'0 0.0
2014-Apr-11 11:33N 47°33' E 007°40'0 0.0
2014-Apr-11 10:33N 47°33' E 007°40'0 0.0
2014-Apr-11 09:33N 47°33' E 007°40'0 0.0
2014-Apr-11 08:33N 47°33' E 007°40'0 0.0
2014-Apr-11 07:33N 47°33' E 007°40'0 0.0
2014-Apr-11 06:33N 47°33' E 007°40'0 0.0
2014-Apr-11 05:33N 47°33' E 007°40'1 1.4
2014-Apr-11 04:33N 47°34' E 007°38'2 2.0
2014-Apr-11 03:33N 47°34' E 007°35'5 5.3
2014-Apr-11 02:33N 47°39' E 007°32'63 4.1
2014-Apr-10 11:06N 48°40' E 007°54'1 2.3
2014-Apr-10 10:33N 48°41' E 007°55'6 5.7
2014-Apr-10 09:33N 48°46' E 008°01'13 4.0
2014-Apr-10 06:14N 48°57' E 008°11'3 3.4
2014-Apr-10 05:23N 48°59' E 008°15'3 3.7
2014-Apr-10 04:33N 49°01' E 008°18'4 4.1
2014-Apr-10 03:32N 49°05' E 008°20'4 4.1
2014-Apr-10 02:33N 49°09' E 008°22'4 4.1
2014-Apr-10 01:33N 49°13' E 008°23'4 4.0
2014-Apr-10 00:32N 49°16' E 008°27'3 2.9
2014-Apr-09 23:33N 49°19' E 008°27'129 3.5
2014-Apr-08 11:12N 51°11' E 006°48'2 3.1
2014-Apr-08 10:29N 51°11' E 006°44'3 2.7
2014-Apr-08 09:32N 51°13' E 006°45'  

Dump ship's entire track history

sailing weather and tide predictions

Tms Max — DJ2142 — position and weather